| time (UTC) | temp C | wind direction | speed KPH | gust KPH | rain 1hr cm | rain 24hr cm | rain mn cm | humidity % | barometer mb |
| 20260505124528 | 3 | 203 | 0.0 | 3.2 | 0.00 | 0.00 | 0.00 | 88 | 1013.0 |
| 20260505123528 | 3 | 208 | 0.0 | 3.2 | 0.00 | 0.00 | 0.00 | 87 | 1013.1 |
| 20260505122528 | 3 | 214 | 0.0 | 1.6 | 0.00 | 0.00 | 0.00 | 87 | 1013.0 |
| 20260505121528 | 3 | 228 | 0.0 | 3.2 | 0.00 | 0.00 | 0.00 | 88 | 1013.0 |
| 20260505120529 | 3 | 0.0 | 0.0 | 0.00 | 0.00 | 0.00 | 88 | 1012.9 | |
| 20260505115529 | 3 | 0.0 | 0.0 | 0.00 | 0.00 | 0.00 | 88 | 1013.0 | |
| 20260505114528 | 3 | 0.0 | 0.0 | 0.00 | 0.00 | 0.00 | 88 | 1012.9 | |
| 20260505113549 | 3 | 0.0 | 0.0 | 0.00 | 0.00 | 0.00 | 88 | 1012.8 | |
| 20260505112529 | 3 | 0.0 | 0.0 | 0.00 | 0.00 | 0.00 | 87 | 1012.8 | |
| 20260505111529 | 3 | 0.0 | 0.0 | 0.00 | 0.00 | 0.00 | 87 | 1012.9 | |
| 20260505110530 | 3 | 131 | 0.0 | 3.2 | 0.00 | 0.00 | 0.00 | 87 | 1013.0 |
| 20260505101516 | 3 | 46 | 1.6 | 6.4 | 0.00 | 0.00 | 0.00 | 86 | 1012.9 |
| 20260505100522 | 3 | 41 | 3.2 | 9.7 | 0.00 | 0.00 | 0.00 | 86 | 1012.8 |
| 20260505095531 | 3 | 30 | 1.6 | 4.8 | 0.00 | 0.00 | 0.00 | 87 | 1012.8 |
| 20260505094532 | 3 | 46 | 4.8 | 8.0 | 0.00 | 0.00 | 0.00 | 86 | 1012.9 |
| 20260505093531 | 3 | 48 | 3.2 | 4.8 | 0.00 | 0.00 | 0.00 | 86 | 1012.9 |
| 20260505092532 | 3 | 41 | 1.6 | 4.8 | 0.00 | 0.00 | 0.00 | 87 | 1013.0 |
| 20260505091517 | 3 | 40 | 3.2 | 9.7 | 0.00 | 0.00 | 0.00 | 85 | 1013.0 |
| 20260505090517 | 4 | 47 | 3.2 | 8.0 | 0.00 | 0.00 | 0.00 | 85 | 1012.9 |
| 20260505085517 | 4 | 44 | 3.2 | 8.0 | 0.00 | 0.00 | 0.00 | 85 | 1012.9 |
| 20260505084517 | 5 | 53 | 1.6 | 8.0 | 0.00 | 0.00 | 0.00 | 84 | 1013.0 |
| 20260505083538 | 5 | 56 | 3.2 | 8.0 | 0.00 | 0.00 | 0.00 | 80 | 1013.4 |
| 20260505082533 | 6 | 62 | 3.2 | 6.4 | 0.00 | 0.00 | 0.00 | 75 | 1013.9 |
| 20260505081518 | 6 | 54 | 1.6 | 6.4 | 0.00 | 0.00 | 0.00 | 73 | 1014.0 |
| 20260505080518 | 6 | 89 | 1.6 | 4.8 | 0.00 | 0.00 | 0.00 | 72 | 1014.0 |
| 20260505075517 | 6 | 39 | 4.8 | 11.3 | 0.00 | 0.00 | 0.00 | 66 | 1014.1 |
| 20260505074518 | 6 | 32 | 4.8 | 11.3 | 0.00 | 0.00 | 0.00 | 65 | 1014.2 |
| 20260505073518 | 6 | 50 | 6.4 | 12.9 | 0.00 | 0.00 | 0.00 | 64 | 1014.3 |
| 20260505072518 | 6 | 41 | 4.8 | 11.3 | 0.00 | 0.00 | 0.00 | 64 | 1014.2 |
| 20260505071519 | 6 | 42 | 4.8 | 11.3 | 0.00 | 0.00 | 0.00 | 64 | 1014.2 |
| 20260505070519 | 6 | 50 | 6.4 | 14.5 | 0.00 | 0.00 | 0.00 | 64 | 1014.1 |
| 20260505065519 | 6 | 42 | 6.4 | 11.3 | 0.00 | 0.00 | 0.00 | 65 | 1014.0 |
| 20260505064519 | 6 | 57 | 4.8 | 9.7 | 0.00 | 0.00 | 0.00 | 65 | 1013.9 |
| 20260505063539 | 6 | 42 | 4.8 | 12.9 | 0.00 | 0.00 | 0.00 | 65 | 1013.8 |
| 20260505062520 | 6 | 41 | 6.4 | 14.5 | 0.00 | 0.00 | 0.00 | 66 | 1013.8 |
| 20260505061517 | 6 | 46 | 8.0 | 14.5 | 0.00 | 0.00 | 0.00 | 65 | 1013.8 |
| 20260505060517 | 6 | 45 | 4.8 | 9.7 | 0.00 | 0.00 | 0.00 | 65 | 1013.7 |
| 20260505055518 | 7 | 28 | 4.8 | 12.9 | 0.00 | 0.00 | 0.00 | 64 | 1013.8 |
| 20260505054518 | 7 | 45 | 6.4 | 14.5 | 0.00 | 0.00 | 0.00 | 62 | 1013.7 |
| 20260505053538 | 7 | 43 | 6.4 | 12.9 | 0.00 | 0.00 | 0.00 | 60 | 1013.7 |
| 20260505052518 | 7 | 53 | 6.4 | 16.1 | 0.00 | 0.00 | 0.00 | 58 | 1013.7 |
| 20260505051518 | 8 | 29 | 4.8 | 11.3 | 0.00 | 0.00 | 0.00 | 57 | 1013.5 |
| 20260505050518 | 8 | 47 | 6.4 | 12.9 | 0.00 | 0.00 | 0.00 | 56 | 1013.4 |
| 20260505041519 | 10 | 60 | 3.2 | 11.3 | 0.00 | 0.00 | 0.00 | 46 | 1012.5 |
| 20260505040519 | 10 | 49 | 6.4 | 12.9 | 0.00 | 0.00 | 0.00 | 45 | 1012.3 |
| 20260505035537 | 10 | 48 | 4.8 | 12.9 | 0.00 | 0.00 | 0.00 | 45 | 1012.1 |
| 20260505034517 | 10 | 42 | 6.4 | 19.3 | 0.00 | 0.00 | 0.00 | 44 | 1012.0 |
| 20260505033517 | 10 | 39 | 6.4 | 17.7 | 0.00 | 0.00 | 0.00 | 44 | 1011.8 |
| 20260505032520 | 10 | 42 | 8.0 | 17.7 | 0.00 | 0.00 | 0.00 | 42 | 1011.6 |
| 20260505031517 | 11 | 47 | 8.0 | 19.3 | 0.00 | 0.00 | 0.00 | 42 | 1011.3 |
| 20260505030517 | 11 | 38 | 8.0 | 17.7 | 0.00 | 0.00 | 0.00 | 41 | 1010.8 |
| 20260505025517 | 11 | 35 | 6.4 | 14.5 | 0.00 | 0.00 | 0.00 | 41 | 1010.6 |
| 20260505024518 | 12 | 33 | 6.4 | 14.5 | 0.00 | 0.00 | 0.00 | 40 | 1010.3 |
| 20260505023518 | 12 | 36 | 6.4 | 12.9 | 0.00 | 0.00 | 0.00 | 40 | 1009.9 |
| 20260505022518 | 12 | 28 | 4.8 | 12.9 | 0.00 | 0.00 | 0.00 | 40 | 1009.8 |
| 20260505021518 | 13 | 42 | 8.0 | 16.1 | 0.00 | 0.00 | 0.00 | 40 | 1009.5 |
| 20260505020519 | 13 | 34 | 6.4 | 14.5 | 0.00 | 0.00 | 0.00 | 39 | 1009.2 |
| 20260505015539 | 13 | 29 | 4.8 | 12.9 | 0.00 | 0.00 | 0.00 | 39 | 1009.2 |
| 20260505014519 | 13 | 40 | 8.0 | 19.3 | 0.00 | 0.00 | 0.00 | 38 | 1009.1 |
| 20260505013519 | 13 | 45 | 8.0 | 16.1 | 0.00 | 0.00 | 0.00 | 38 | 1008.9 |
| 20260505012516 | 13 | 49 | 9.7 | 25.7 | 0.00 | 0.00 | 0.00 | 38 | 1008.9 |
| 20260505011517 | 13 | 38 | 6.4 | 14.5 | 0.00 | 0.00 | 0.00 | 38 | 1009.0 |
| 20260505010540 | 14 | 45 | 9.7 | 16.1 | 0.00 | 0.00 | 0.00 | 37 | 1008.9 |
| 20260505005520 | 14 | 34 | 8.0 | 19.3 | 0.00 | 0.00 | 0.00 | 37 | 1008.7 |
| 20260505004517 | 15 | 25 | 8.0 | 24.1 | 0.00 | 0.00 | 0.00 | 35 | 1008.5 |
| 20260505003517 | 16 | 26 | 8.0 | 17.7 | 0.00 | 0.00 | 0.00 | 35 | 1008.5 |
| 20260505002517 | 16 | 36 | 8.0 | 17.7 | 0.00 | 0.00 | 0.00 | 34 | 1008.1 |
| 20260505001518 | 17 | 14 | 6.4 | 12.9 | 0.00 | 0.00 | 0.00 | 32 | 1008.1 |
| 20260505000518 | 17 | 40 | 6.4 | 14.5 | 0.00 | 0.00 | 0.00 | 32 | 1008.0 |
| 20260504235518 | 17 | 2 | 6.4 | 16.1 | 0.00 | 0.00 | 0.00 | 32 | 1008.0 |
| 20260504234518 | 17 | 15 | 6.4 | 12.9 | 0.00 | 0.00 | 0.00 | 32 | 1007.8 |
| 20260504233518 | 17 | 36 | 8.0 | 17.7 | 0.00 | 0.00 | 0.00 | 32 | 1007.7 |
| 20260504232518 | 18 | 1 | 6.4 | 17.7 | 0.00 | 0.00 | 0.00 | 31 | 1007.4 |
| 20260504231539 | 18 | 27 | 8.0 | 20.9 | 0.00 | 0.00 | 0.00 | 31 | 1007.4 |
| 20260504230516 | 18 | 356 | 8.0 | 17.7 | 0.00 | 0.00 | 0.00 | 31 | 1007.3 |
| 20260504225519 | 18 | 11 | 6.4 | 14.5 | 0.00 | 0.00 | 0.00 | 29 | 1007.1 |
| 20260504224519 | 17 | 38 | 8.0 | 22.5 | 0.00 | 0.00 | 0.00 | 31 | 1007.0 |
| 20260504223519 | 18 | 31 | 8.0 | 16.1 | 0.00 | 0.00 | 0.00 | 31 | 1007.1 |
| 20260504222517 | 19 | 17 | 4.8 | 16.1 | 0.00 | 0.00 | 0.00 | 29 | 1007.1 |
| 20260504221517 | 18 | 350 | 8.0 | 16.1 | 0.00 | 0.00 | 0.00 | 29 | 1007.3 |
| 20260504220537 | 19 | 337 | 8.0 | 16.1 | 0.00 | 0.00 | 0.00 | 29 | 1007.3 |
| 20260504215520 | 19 | 30 | 4.8 | 14.5 | 0.00 | 0.00 | 0.00 | 29 | 1007.4 |
| 20260504214520 | 18 | 39 | 6.4 | 16.1 | 0.00 | 0.00 | 0.00 | 30 | 1007.5 |
| 20260504213518 | 18 | 52 | 8.0 | 17.7 | 0.00 | 0.00 | 0.00 | 29 | 1007.7 |
| 20260504212518 | 18 | 45 | 8.0 | 19.3 | 0.00 | 0.00 | 0.00 | 30 | 1007.8 |
| 20260504211518 | 18 | 40 | 9.7 | 19.3 | 0.00 | 0.00 | 0.00 | 29 | 1007.8 |
| 20260504210538 | 19 | 34 | 8.0 | 17.7 | 0.00 | 0.00 | 0.00 | 29 | 1007.7 |
| 20260504205533 | 20 | 59 | 6.4 | 12.9 | 0.00 | 0.00 | 0.00 | 28 | 1007.6 |
| 20260504204538 | 19 | 39 | 6.4 | 14.5 | 0.00 | 0.00 | 0.00 | 28 | 1007.8 |
| 20260504203519 | 18 | 43 | 8.0 | 16.1 | 0.00 | 0.00 | 0.00 | 29 | 1007.9 |
| 20260504202522 | 18 | 35 | 8.0 | 14.5 | 0.00 | 0.00 | 0.00 | 29 | 1008.2 |
| 20260504201519 | 19 | 9 | 8.0 | 17.7 | 0.00 | 0.00 | 0.00 | 28 | 1008.2 |
| 20260504200520 | 18 | 53 | 6.4 | 19.3 | 0.00 | 0.00 | 0.00 | 29 | 1008.2 |
| 20260504195516 | 18 | 60 | 8.0 | 17.7 | 0.00 | 0.00 | 0.00 | 29 | 1008.2 |
| 20260504194517 | 18 | 46 | 8.0 | 19.3 | 0.00 | 0.00 | 0.00 | 30 | 1008.4 |
| 20260504193540 | 18 | 42 | 8.0 | 19.3 | 0.00 | 0.00 | 0.00 | 29 | 1008.4 |
| 20260504192520 | 18 | 52 | 8.0 | 19.3 | 0.00 | 0.00 | 0.00 | 30 | 1008.5 |
| 20260504191520 | 18 | 80 | 6.4 | 17.7 | 0.00 | 0.00 | 0.00 | 30 | 1008.5 |
| 20260504190517 | 18 | 50 | 6.4 | 12.9 | 0.00 | 0.00 | 0.00 | 30 | 1008.6 |
| 20260504185517 | 18 | 54 | 9.7 | 20.9 | 0.00 | 0.00 | 0.00 | 30 | 1009.0 |
| 20260504184518 | 18 | 38 | 6.4 | 14.5 | 0.00 | 0.00 | 0.00 | 30 | 1009.3 |
| 20260504183518 | 17 | 68 | 6.4 | 16.1 | 0.00 | 0.00 | 0.00 | 30 | 1009.3 |
| 20260504182521 | 17 | 52 | 6.4 | 17.7 | 0.00 | 0.00 | 0.00 | 31 | 1009.3 |
| 20260504181539 | 17 | 58 | 9.7 | 19.3 | 0.00 | 0.00 | 0.00 | 31 | 1009.1 |
| 20260504180518 | 17 | 50 | 6.4 | 17.7 | 0.00 | 0.00 | 0.00 | 31 | 1009.5 |
| 20260504175518 | 17 | 47 | 9.7 | 17.7 | 0.00 | 0.00 | 0.00 | 31 | 1009.6 |
| 20260504174519 | 16 | 65 | 6.4 | 14.5 | 0.00 | 0.00 | 0.00 | 33 | 1009.6 |
| 20260504173519 | 16 | 78 | 6.4 | 16.1 | 0.00 | 0.00 | 0.00 | 32 | 1009.6 |
| 20260504172525 | 16 | 87 | 6.4 | 12.9 | 0.00 | 0.00 | 0.00 | 31 | 1009.5 |
| 20260504171519 | 16 | 60 | 6.4 | 11.3 | 0.00 | 0.00 | 0.00 | 32 | 1009.6 |
| 20260504170540 | 15 | 41 | 11.3 | 19.3 | 0.00 | 0.00 | 0.00 | 35 | 1009.7 |
| 20260504150518 | 12 | 37 | 3.2 | 11.3 | 0.00 | 0.00 | 0.00 | 43 | 1009.7 |
| 20260504140523 | 6 | 121 | 0.0 | 3.2 | 0.00 | 0.00 | 0.00 | 60 | 1010.0 |